Location: White Sands National Monument
(32.8140°N, 106.2665°W)
Time: 12:29:52
(UTC-06:00)

Daily predictions for brighter satellites

Satellite Brightness Start Highest point End
(mag) Time Altitude Azimuth Time Altitude Azimuth Time Altitude Azimuth
Helios 1A 3.0 19:55:05 10° SSE 19:59:10 63° ENE 20:03:19 10° N
Cosmos 1697 Rocket 4.3 20:01:07 10° ESE 20:03:23 12° E 20:05:39 10° ENE
BREEZE-M DEB (TANK) 3.6 19:50:25 10° NW 20:03:45 86° SW 20:07:26 10° SE
Cosmos 968 Rocket 3.4 19:59:47 10° NNW 20:04:55 70° ENE 20:09:59 10° SSE
Cosmos 2278 4.0 20:00:03 10° S 20:05:21 43° ESE 20:10:42 10° NE
Cosmos 1315 Rocket 3.1 20:01:29 10° SSW 20:05:25 74° W 20:09:28 10° N
Meteor 2-4 Rocket 4.0 20:01:34 10° N 20:07:19 54° E 20:13:06 10° SSE
NOSS 2-1 (D) 4.3 20:05:27 10° SW 20:09:11 50° WNW 20:13:13 10° NNE
ALOS 2.9 20:05:15 10° SE 20:09:29 36° ENE 20:13:45 10° N
NOSS 2-1 (C) 4.3 20:06:27 10° SW 20:10:12 51° WNW 20:14:15 10° NNE
H-2A R/B 3.8 20:09:18 10° SE 20:12:35 27° ENE 20:15:54 10° NNE
Cosmos 1892 Rocket 4.0 20:08:28 10° N 20:12:43 41° E 20:16:56 10° SSE
Cosmos 1455 Rocket 3.5 20:09:38 10° SSE 20:13:39 39° E 20:17:42 10° NNE
Cosmos 1025 Rocket 3.0 20:09:25 10° N 20:13:46 73° E 20:18:04 10° SSE
Meteor 2-14 Rocket 4.5 20:08:27 10° S 20:14:28 61° E 20:20:31 10° NNE
Resurs 1-3 3.6 20:10:19 10° SSE 20:14:40 73° ENE 20:19:03 10° N
SJ-6B 4.5 20:11:27 10° SSW 20:14:52 35° W 20:18:19 10° NNW
GOES 2 Rocket 4.1 20:12:00 10° WSW 20:15:45 32° SSW 20:19:38 10° SE
Cosmos 2369 3.9 20:13:14 10° S 20:18:39 50° ESE 20:24:08 10° NNE
Meteor 1-29 4.3 20:16:09 10° N 20:19:27 44° WNW 20:22:46 10° SSW
METEOR-M 4.4 20:17:41 10° S 20:23:00 74° WSW 20:28:21 10° NNW
Cosmos 1633 3.9 20:20:07 10° SSW 20:23:38 44° W 20:27:08 10° N
Cosmos 1980 Rocket 4.1 20:26:51 10° E 20:26:51 10° E 20:27:06 10° E
Meteor 1-23 Rocket 4.2 20:21:36 10° N 20:27:16 76° E 20:32:58 10° SSE
CZ-2D R/B 3.5 20:25:41 10° SSE 20:29:23 50° ENE 20:33:10 10° N
H-II Stage 2 3.7 20:30:05 10° SSW 20:30:58 12° S 20:31:08 12° SSE
Resurs 01 Rocket 2.6 20:27:36 10° S 20:31:53 50° W 20:36:12 10° NNW
FengYun 1-2 T 4.4 20:30:01 10° S 20:35:40 80° WSW 20:41:19 10° NNW
Hubble Space Telescope 1.7 20:32:05 10° WSW 20:35:55 37° S 20:38:23 19° SE
Cosmos 1934 Rocket 4.0 20:32:41 10° S 20:38:47 88° W 20:45:01 10° N
USA 186 1.7 20:41:34 19° SSE 20:43:38 57° ENE 20:46:37 10° N
Tiangong 1 3.8 20:43:55 10° NW 20:45:37 14° N 20:47:19 10° NNE
Cosmos 1777 Rocket 4.0 20:40:28 10° NNW 20:45:44 84° WSW 20:51:00 10° SSE
OTV 4 1.7 20:44:15 10° WNW 20:46:59 32° N 20:48:16 22° NE
Cosmos 1544 Rocket 4.4 20:43:08 10° SSW 20:47:23 52° W 20:51:41 10° N
Delta 2 Rocket 4.0 20:42:22 10° WNW 20:48:02 75° N 20:51:17 23° E
Cosmos 1346 Rocket 2.7 20:44:20 10° N 20:48:17 72° E 20:51:31 15° SSE
Cosmos 1500 4.0 20:53:26 30° E 20:53:26 30° E 20:56:41 10° NNE
FENGYUN 3A 3.7 20:48:28 10° S 20:53:50 80° WSW 20:59:11 10° NNW
Cosmos 2227 Rocket 2.3 20:51:34 10° NNW 20:57:07 56° ENE 21:00:12 26° SE
CZ-4 DEB 3.5 20:59:27 34° ENE 20:59:27 34° ENE 21:02:02 10° N
Cosmos 1656 3.6 20:53:53 10° S 20:59:27 64° ESE 21:04:58 10° NNE
CZ-3C R/B 3.7 20:06:32 10° W 21:04:24 49° SSW 21:09:51 24° SE
Cosmos 2082 3.6 21:05:01 10° NNW 21:10:38 70° ENE 21:13:11 33° SE
NOSS 3-4 (A) 3.8 21:03:37 10° NNW 21:10:48 88° ENE 21:15:30 25° SSE
NOSS 3-4 (C) 3.8 21:03:44 10° NNW 21:10:55 87° ENE 21:15:35 26° SSE
Cosmos 2297 Rocket 2.3 21:07:15 10° N 21:12:48 54° ENE 21:14:38 38° ESE
Envisat 3.3 21:14:26 39° ESE 21:15:25 44° ENE 21:20:14 10° N
SJ-11-01 4.2 21:16:59 42° SSE 21:18:31 72° ENE 21:23:11 10° N
Cosmos 2173 Rocket 4.2 21:17:29 30° SSE 21:20:22 51° E 21:26:29 10° NNE
Cosmos 1515 3.9 21:16:37 10° N 21:20:00 53° NE 21:20:00 53° NE
OAO 2 Rocket 3.4 21:20:50 10° W 21:25:53 74° N 21:27:30 43° ENE
YAOGAN 11 4.1 21:27:50 48° S 21:29:05 82° WSW 21:33:35 10° NNW
Cosmos 2100 Rocket 3.9 21:27:05 26° S 21:30:49 70° E 21:37:02 10° N
Cosmos 1975 4.0 21:27:27 10° SSW 21:31:22 44° W 21:35:18 10° N
Cosmos 2061 Rocket 3.9 21:29:06 34° SSE 21:31:52 64° E 21:38:04 10° NNE
Iridium 4 Rocket 3.5 21:29:43 10° N 21:34:43 67° W 21:36:38 34° SSW
Cosmos 2150 Rocket 4.2 21:29:59 10° N 21:34:52 50° ENE 21:34:52 50° ENE
DELTA 2 R/B (1) 4.0 21:34:32 10° WNW 21:39:58 52° NNE 21:41:10 44° NE
H-2A R/B 2.9 21:43:39 39° NNE 21:43:39 39° NNE 21:46:25 10° N
Cosmos 1066 Rocket 4.1 21:38:45 10° N 21:44:27 82° E 21:45:23 64° SSE
Lacrosse 5 rocket 2.5 21:42:53 10° NNW 21:45:08 34° NNW 21:45:08 34° NNW
Cosmos 1697 Rocket 3.0 21:41:03 10° SSW 21:46:39 67° WNW 21:52:17 10° NNE
ERS-1 Rocket 3.3 21:47:45 46° SSW 21:48:59 60° WSW 21:53:57 10° NNW
deb Chang Zheng 4 4.0 21:51:27 10° N 21:55:42 62° WNW 21:55:42 62° WNW
Cosmos 1461 4.3 21:54:43 10° NW 21:57:43 31° W 21:57:43 31° W
Cosmos 1898 Rocket 3.5 21:54:28 10° NNW 21:59:26 78° NW 21:59:26 78° NW
Cosmos 1939 Rocket 4.2 22:03:34 39° WNW 22:03:34 39° WNW 22:06:59 10° NNW
Cosmos 1459 Rocket 4.3 22:05:51 33° SSW 22:08:29 59° W 22:14:28 10° N
Cosmos 1980 Rocket 2.3 22:08:26 71° W 22:08:46 73° WNW 22:14:28 10° NNE
ARGOS 4.2 22:12:24 36° NNE 22:12:24 36° NNE 22:15:47 10° N
Milstar 3 Cent rocket 3.7 21:52:40 10° W 22:12:10 70° S 22:14:46 55° SE
SPOT 5 3.7 22:20:37 50° NW 22:20:37 50° NW 22:24:25 10° NNW
Lacrosse 5 3.2 22:15:27 10° NNW 22:18:37 33° N 22:18:37 33° N
USA 215 4.2 22:32:14 34° NE 22:32:14 34° NE 22:37:58 10° NNW
Cosmos 2227 Rocket 4.5 22:37:28 10° WNW 22:40:36 15° W 22:42:04 14° WSW
Cosmos 2263 Rocket 4.5 22:38:42 10° NNE 22:39:56 14° NNE 22:39:56 14° NNE
Cosmos 2297 Rocket 4.4 22:52:58 10° WNW 22:56:16 16° W 22:56:28 16° WSW
H-2A R/B 4.2 23:00:30 19° N 23:00:30 19° N 23:01:53 10° N
Terra 4.4 23:02:30 15° N 23:02:30 15° N 23:03:16 10° N
